This is the latest recevied weather packets stored in our database for station/object DH1NAI-6. If no packets are shown the sender has not sent any weather packets the latest 10 day(s).
| Time | Temp. | Humidity | Pressure | Rain* | Wind** | Luminosity | Snow |
|---|---|---|---|---|---|---|---|
| 1788060227 | 16.11° C | 85% | 1012.5 hPa | 0 mm | - | 0 W/m² | - |
| 1788059619 | 16.11° C | 85% | 1012.2 hPa | 0 mm | - | 0 W/m² | - |
| 1788059011 | 16.11° C | 85% | 1012.3 hPa | 0 mm | - | 0 W/m² | - |
| 1788058403 | 16.11° C | 86% | 1012.5 hPa | 0 mm | - | 0 W/m² | - |
| 1788057795 | 16.11° C | 87% | 1012.5 hPa | 0 mm | - | 0 W/m² | - |
| 1788057187 | 16.11° C | 87% | 1012.5 hPa | 0 mm | - | 0 W/m² | - |
| 1788056579 | 16.67° C | 83% | 1012.5 hPa | 0 mm | - | 0 W/m² | - |
| 1788055971 | 16.67° C | 80% | 1012.3 hPa | 0 mm | - | 0 W/m² | - |
| 1788055363 | 16.67° C | 80% | 1012.3 hPa | 0 mm | - | 0 W/m² | - |
| 1788054751 | 17.22° C | 79% | 1012.5 hPa | 0 mm | - | 0 W/m² | - |
| 1788054147 | 16.67° C | 79% | 1012.4 hPa | 0 mm | - | 0 W/m² | - |
| 1788053539 | 16.67° C | 80% | 1012.5 hPa | 0 mm | - | 0 W/m² | - |
| 1788052915 | 16.11° C | 82% | 1012.3 hPa | 0 mm | - | 0 W/m² | - |
| 1788052291 | 16.11° C | 83% | 1012.3 hPa | 0 mm | - | 0 W/m² | - |
| 1788051683 | 16.11° C | 83% | 1012.4 hPa | 0 mm | - | 0 W/m² | - |
| 1788051075 | 16.11° C | 82% | 1012.4 hPa | 0 mm | - | 0 W/m² | - |
| 1788050467 | 16.67° C | 81% | 1012.5 hPa | 0 mm | - | 0 W/m² | - |
| 1788049859 | 16.67° C | 79% | 1012.4 hPa | 0 mm | - | 0 W/m² | - |
| 1788049251 | 17.22° C | 78% | 1012.5 hPa | 0 mm | - | 0 W/m² | - |
| 1788048644 | 17.22° C | 77% | 1012.7 hPa | 0 mm | - | 0 W/m² | - |
| 1788048031 | 17.22° C | 77% | 1012.5 hPa | 0 mm | - | 0 W/m² | - |
| 1788047427 | 17.22° C | 77% | 1012.6 hPa | 0 mm | - | 0 W/m² | - |
| 1788046819 | 17.22° C | 78% | 1012.8 hPa | 0 mm | - | 0 W/m² | - |
| 1788046195 | 17.22° C | 79% | 1012.8 hPa | 0 mm | - | 0 W/m² | - |
| 1788045571 | 17.22° C | 79% | 1012.7 hPa | 0 mm | - | 0 W/m² | - |
* Rain latest hour (hover to see other rain measurements)
** Current wind speed in m/s (hover to see current wind gust speed)